Johann Essberger — CQKG — position and weather

sailwx.info

Track history (hours):
 
Tides and Currents Weather Stations Pressure Air Temp Water Temp Dewpoint Dewpoint Depression Visibility Wind Speed Wind Dir Waves Ship Positions

Johann Essberger

Last reported at 2014-Oct-30 16:20 UTC. Time now 2014-Oct-31 04:02 UTC.
Position N 54°41' E 020°23'.

Length 100 m; draft 6.6 m.

Type: Ship (hazmat cat B). MMSI: 255804460.

Date/timePositionNaut miles runAvg speedWind from/ knotsBaromVisibWave heightAir tempDewpointWater temp
2014-Oct-30 16:20N 54°41' E 020°23'13 7.2
2014-Oct-30 14:33N 54°38' E 020°02'8 7.7
2014-Oct-30 13:34N 54°40' E 019°49'1 1.3
2014-Oct-30 12:29N 54°39' E 019°46'0 0.0
2014-Oct-30 11:31N 54°39' E 019°46'0 0.0
2014-Oct-30 10:30N 54°39' E 019°46'0 0.0
2014-Oct-30 09:33N 54°39' E 019°46'2 1.9
2014-Oct-30 08:33N 54°41' E 019°45'9 9.2
2014-Oct-30 07:33N 54°46' E 019°31'10 9.6
2014-Oct-30 06:33N 54°49' E 019°16'1010.3
2014-Oct-30 05:33N 54°53' E 018°59'1110.7
2014-Oct-30 04:33N 54°57' E 018°42'1010.5
2014-Oct-30 03:33N 54°57' E 018°23'1110.9
2014-Oct-30 02:33N 54°55' E 018°05'9810.8
2014-Oct-29 17:26N 54°51' E 015°14'1011.3
2014-Oct-29 16:34N 54°52' E 014°57'1111.4
2014-Oct-29 15:34N 54°53' E 014°37'1210.7
2014-Oct-29 14:27N 54°54' E 014°17'14534.2
2014-Oct-29 10:13N 54°24' E 010°12'1 1.2
2014-Oct-29 09:12N 54°23' E 010°11'81122.0
2014-Oct-29 08:33N 54°38' E 012°27'1110.9
2014-Oct-29 07:33N 54°30' E 012°15'1110.8
2014-Oct-29 06:33N 54°24' E 011°60'1211.9
2014-Oct-29 05:33N 54°26' E 011°39'1511.7
2014-Oct-29 04:16N 54°33' E 011°17'1112.2
2014-Oct-29 03:23N 54°35' E 010°59'1111.9
2014-Oct-29 02:29N 54°34' E 010°40'1111.3
2014-Oct-29 01:32N 54°30' E 010°22'1010.5
2014-Oct-29 00:33N 54°23' E 010°11'2 2.0
2014-Oct-28 23:33N 54°22' E 010°08'3 3.3
2014-Oct-28 22:33N 54°22' E 010°02'5 4.6
2014-Oct-28 21:33N 54°21' E 009°54'7 7.0
2014-Oct-28 20:33N 54°19' E 009°43'8 7.4
2014-Oct-28 19:31N 54°13' E 009°35'8 7.8
2014-Oct-28 18:31N 54°09' E 009°23'7 7.2
2014-Oct-28 17:33N 54°03' E 009°18'8 7.6
2014-Oct-28 16:33N 53°56' E 009°13'4 3.6
2014-Oct-28 15:33N 53°54' E 009°09'2 2.0
2014-Oct-28 14:31N 53°53' E 009°05'0 0.0
2014-Oct-28 13:31N 53°53' E 009°05'0 0.0
2014-Oct-28 12:33N 53°53' E 009°05'8 8.3
2014-Oct-28 11:34N 53°50' E 008°52'1212.1
2014-Oct-28 10:34N 53°58' E 008°36'2311.4
2014-Oct-28 08:32N 53°58' E 007°56'10 9.7
2014-Oct-28 07:31N 53°55' E 007°40'10 9.8
2014-Oct-28 06:33N 53°54' E 007°24'11 9.8
2014-Oct-28 05:27N 53°51' E 007°06'9 9.9
2014-Oct-28 04:33N 53°50' E 006°51'1110.1
2014-Oct-28 03:26N 53°48' E 006°33'8 7.2
2014-Oct-28 02:21N 53°50' E 006°20'8 8.3
2014-Oct-28 01:23N 53°54' E 006°08'1011.0
2014-Oct-28 00:31N 53°52' E 005°52'1111.3
2014-Oct-27 23:33N 53°50' E 005°34'1111.4
2014-Oct-27 22:33N 53°49' E 005°15'1110.1
2014-Oct-27 21:31N 53°46' E 004°58'1111.7
2014-Oct-27 20:33N 53°35' E 004°50'1212.4
2014-Oct-27 19:33N 53°24' E 004°41'1313.5
2014-Oct-27 18:33N 53°11' E 004°33'1413.5
2014-Oct-27 17:33N 52°60' E 004°21'1413.2
2014-Oct-27 16:28N 52°48' E 004°09'1213.1
2014-Oct-27 15:33N 52°38' E 003°56'1312.7
2014-Oct-27 14:33N 52°29' E 003°41'1211.7
2014-Oct-27 13:33N 52°18' E 003°38'1111.2
2014-Oct-27 12:33N 52°08' E 003°28'1110.6
2014-Oct-27 11:32N 51°58' E 003°23'1110.8
2014-Oct-27 10:33N 51°48' E 003°17'1110.8
2014-Oct-27 09:32N 51°37' E 003°22'1111.6
2014-Oct-27 08:33N 51°28' E 003°31'10 9.9
2014-Oct-27 07:33N 51°22' E 003°44'9 9.5
2014-Oct-27 06:34N 51°26' E 003°58'8 7.9
2014-Oct-27 05:33N 51°24' E 004°11'8 8.2
2014-Oct-27 04:34N 51°17' E 004°19'2 2.4
2014-Oct-27 03:33N 51°16' E 004°16'2 2.0
2014-Oct-27 02:31N 51°16' E 004°13'0 0.0
2014-Oct-27 01:28N 51°16' E 004°13'0 0.0
2014-Oct-27 00:10N 51°16' E 004°13'0 0.0
2014-Oct-26 23:22N 51°16' E 004°13'0 0.0
2014-Oct-26 19:16N 51°16' E 004°13'0 0.0
2014-Oct-26 18:24N 51°16' E 004°13'0 0.0
2014-Oct-26 17:27N 51°16' E 004°13'0 0.0
2014-Oct-26 15:19N 51°16' E 004°13'0 0.0
2014-Oct-26 13:20N 51°16' E 004°13'0 0.0
2014-Oct-26 02:11N 51°16' E 004°13'0 0.1
2014-Oct-26 01:33N 51°16' E 004°13'2 2.3
2014-Oct-26 00:34N 51°16' E 004°17'0 0.0
2014-Oct-25 23:33N 51°16' E 004°17'4 3.7
2014-Oct-25 22:34N 51°20' E 004°16'10 9.5
2014-Oct-25 21:33N 51°23' E 004°02'8 7.9
2014-Oct-25 20:34N 51°21' E 003°50'1010.4
2014-Oct-25 19:33N 51°26' E 003°35'10 9.9
2014-Oct-25 18:33N 51°33' E 003°25'1211.8
2014-Oct-25 17:33N 51°43' E 003°15'24 2.0
2014-Oct-25 05:31N 52°04' E 003°34'6 6.3
2014-Oct-25 04:33N 52°04' E 003°44'7 6.7
2014-Oct-25 03:33N 52°03' E 003°55'1010.3
2014-Oct-25 02:33N 51°58' E 004°09'9 8.6
2014-Oct-25 01:33N 51°53' E 004°21'0 0.2
2014-Oct-25 00:31N 51°53' E 004°21'0 0.0
2014-Oct-24 23:31N 51°53' E 004°21'0 0.0
2014-Oct-24 22:31N 51°53' E 004°21'0 0.0
2014-Oct-24 21:31N 51°53' E 004°21'0 0.0
2014-Oct-24 20:31N 51°53' E 004°21'0 0.0
2014-Oct-24 19:31N 51°53' E 004°21'0 0.0
2014-Oct-24 18:31N 51°53' E 004°21'0 0.0
2014-Oct-24 17:31N 51°53' E 004°21'0 0.0
2014-Oct-24 16:31N 51°53' E 004°21'0 0.0
2014-Oct-24 15:31N 51°53' E 004°21'0 0.0
2014-Oct-24 14:28N 51°53' E 004°21'0 0.0
2014-Oct-24 13:31N 51°53' E 004°21'0 0.0
2014-Oct-24 12:31N 51°53' E 004°21'0 0.0
2014-Oct-24 11:31N 51°53' E 004°21'0 0.0
2014-Oct-24 10:31N 51°53' E 004°21'0 0.0
2014-Oct-24 09:34N 51°53' E 004°21'1 1.3
2014-Oct-24 08:34N 51°54' E 004°19'2 1.8
2014-Oct-24 07:34N 51°53' E 004°17'0 0.0
2014-Oct-24 06:31N 51°53' E 004°17'0 0.0
2014-Oct-24 05:34N 51°53' E 004°17'0 0.0
2014-Oct-24 04:22N 51°53' E 004°17'0 0.0
2014-Oct-24 03:31N 51°53' E 004°17'0 0.0
2014-Oct-24 02:28N 51°53' E 004°17'0 0.0
2014-Oct-24 01:34N 51°53' E 004°17'0 0.0
2014-Oct-24 00:28N 51°53' E 004°17'1 1.6
2014-Oct-23 23:33N 51°54' E 004°16'1111.0
2014-Oct-23 22:33N 51°60' E 004°01'1010.0
2014-Oct-23 21:33N 52°00' E 003°45'8 8.2
2014-Oct-23 20:32N 51°57' E 003°33'60 7.4
2014-Oct-23 12:21N 52°26' E 002°06'5 6.6
2014-Oct-23 11:33N 52°21' E 002°02'8 8.4
2014-Oct-23 10:33N 52°13' E 002°06'8 8.3
2014-Oct-23 09:34N 52°06' E 002°11'13 6.1
2014-Oct-23 07:23N 51°53' E 002°08'8 9.3
2014-Oct-23 06:33N 51°49' E 001°56'1110.7
2014-Oct-23 05:33N 51°51' E 001°39'9 9.2
2014-Oct-23 04:33N 51°56' E 001°27'8 8.0
2014-Oct-23 03:33N 51°57' E 001°14'0 0.0
2014-Oct-22 07:33N 51°57' E 001°14'4 4.3
2014-Oct-22 06:33N 51°55' E 001°21'9 8.6
2014-Oct-22 05:33N 51°59' E 001°34'7 6.7
2014-Oct-22 04:33N 52°04' E 001°40'10 9.9
2014-Oct-22 03:33N 52°13' E 001°47'9 9.2
2014-Oct-22 02:33N 52°22' E 001°50'8 8.3
2014-Oct-22 01:33N 52°30' E 001°53'8 7.8
2014-Oct-22 00:33N 52°38' E 001°55'8 8.2
2014-Oct-21 23:33N 52°46' E 001°53'1010.2
2014-Oct-21 22:33N 52°53' E 001°40'1110.8
2014-Oct-21 21:33N 53°01' E 001°29'1111.1
2014-Oct-21 20:33N 53°11' E 001°20'3911.5
2014-Oct-21 17:13N 53°43' E 000°45'812.4
2014-Oct-21 16:33N 53°50' E 000°37'1212.4
2014-Oct-21 15:33N 54°00' E 000°26'1212.4
2014-Oct-21 14:33N 54°12' E 000°18'1212.1
2014-Oct-21 13:33N 54°23' E 000°12'1211.7
2014-Oct-21 12:33N 54°35' E 000°06'1111.0
2014-Oct-21 11:33N 54°45' E 000°01'10 9.9
2014-Oct-21 10:33N 54°54' W 000°07'149 8.8
2014-Oct-20 17:33N 57°15' W 001°34'9 9.1
2014-Oct-20 16:33N 57°23' W 001°39'  
Track history (hours):
 
Tides and Currents Weather Stations Pressure Air Temp Water Temp Dewpoint Dewpoint Depression Visibility Wind Speed Wind Dir Waves Ship Positions

Johann Essberger

Last reported at 2014-Oct-30 16:20 UTC. Time now 2014-Oct-31 04:02 UTC.
Position N 54°41' E 020°23'.

Length 100 m; draft 6.6 m.

Type: Ship (hazmat cat B). MMSI: 255804460.

Date/timePositionNaut miles runAvg speedWind from/ knotsBaromVisibWave heightAir tempDewpointWater temp
2014-Oct-30 16:20N 54°41' E 020°23'13 7.2
2014-Oct-30 14:33N 54°38' E 020°02'8 7.7
2014-Oct-30 13:34N 54°40' E 019°49'1 1.3
2014-Oct-30 12:29N 54°39' E 019°46'0 0.0
2014-Oct-30 11:31N 54°39' E 019°46'0 0.0
2014-Oct-30 10:30N 54°39' E 019°46'0 0.0
2014-Oct-30 09:33N 54°39' E 019°46'2 1.9
2014-Oct-30 08:33N 54°41' E 019°45'9 9.2
2014-Oct-30 07:33N 54°46' E 019°31'10 9.6
2014-Oct-30 06:33N 54°49' E 019°16'1010.3
2014-Oct-30 05:33N 54°53' E 018°59'1110.7
2014-Oct-30 04:33N 54°57' E 018°42'1010.5
2014-Oct-30 03:33N 54°57' E 018°23'1110.9
2014-Oct-30 02:33N 54°55' E 018°05'9810.8
2014-Oct-29 17:26N 54°51' E 015°14'1011.3
2014-Oct-29 16:34N 54°52' E 014°57'1111.4
2014-Oct-29 15:34N 54°53' E 014°37'1210.7
2014-Oct-29 14:27N 54°54' E 014°17'14534.2
2014-Oct-29 10:13N 54°24' E 010°12'1 1.2
2014-Oct-29 09:12N 54°23' E 010°11'81122.0
2014-Oct-29 08:33N 54°38' E 012°27'1110.9
2014-Oct-29 07:33N 54°30' E 012°15'1110.8
2014-Oct-29 06:33N 54°24' E 011°60'1211.9
2014-Oct-29 05:33N 54°26' E 011°39'1511.7
2014-Oct-29 04:16N 54°33' E 011°17'1112.2
2014-Oct-29 03:23N 54°35' E 010°59'1111.9
2014-Oct-29 02:29N 54°34' E 010°40'1111.3
2014-Oct-29 01:32N 54°30' E 010°22'1010.5
2014-Oct-29 00:33N 54°23' E 010°11'2 2.0
2014-Oct-28 23:33N 54°22' E 010°08'3 3.3
2014-Oct-28 22:33N 54°22' E 010°02'5 4.6
2014-Oct-28 21:33N 54°21' E 009°54'7 7.0
2014-Oct-28 20:33N 54°19' E 009°43'8 7.4
2014-Oct-28 19:31N 54°13' E 009°35'8 7.8
2014-Oct-28 18:31N 54°09' E 009°23'7 7.2
2014-Oct-28 17:33N 54°03' E 009°18'8 7.6
2014-Oct-28 16:33N 53°56' E 009°13'4 3.6
2014-Oct-28 15:33N 53°54' E 009°09'2 2.0
2014-Oct-28 14:31N 53°53' E 009°05'0 0.0
2014-Oct-28 13:31N 53°53' E 009°05'0 0.0
2014-Oct-28 12:33N 53°53' E 009°05'8 8.3
2014-Oct-28 11:34N 53°50' E 008°52'1212.1
2014-Oct-28 10:34N 53°58' E 008°36'2311.4
2014-Oct-28 08:32N 53°58' E 007°56'10 9.7
2014-Oct-28 07:31N 53°55' E 007°40'10 9.8
2014-Oct-28 06:33N 53°54' E 007°24'11 9.8
2014-Oct-28 05:27N 53°51' E 007°06'9 9.9
2014-Oct-28 04:33N 53°50' E 006°51'1110.1
2014-Oct-28 03:26N 53°48' E 006°33'8 7.2
2014-Oct-28 02:21N 53°50' E 006°20'8 8.3
2014-Oct-28 01:23N 53°54' E 006°08'1011.0
2014-Oct-28 00:31N 53°52' E 005°52'1111.3
2014-Oct-27 23:33N 53°50' E 005°34'1111.4
2014-Oct-27 22:33N 53°49' E 005°15'1110.1
2014-Oct-27 21:31N 53°46' E 004°58'1111.7
2014-Oct-27 20:33N 53°35' E 004°50'1212.4
2014-Oct-27 19:33N 53°24' E 004°41'1313.5
2014-Oct-27 18:33N 53°11' E 004°33'1413.5
2014-Oct-27 17:33N 52°60' E 004°21'1413.2
2014-Oct-27 16:28N 52°48' E 004°09'1213.1
2014-Oct-27 15:33N 52°38' E 003°56'1312.7
2014-Oct-27 14:33N 52°29' E 003°41'1211.7
2014-Oct-27 13:33N 52°18' E 003°38'1111.2
2014-Oct-27 12:33N 52°08' E 003°28'1110.6
2014-Oct-27 11:32N 51°58' E 003°23'1110.8
2014-Oct-27 10:33N 51°48' E 003°17'1110.8
2014-Oct-27 09:32N 51°37' E 003°22'1111.6
2014-Oct-27 08:33N 51°28' E 003°31'10 9.9
2014-Oct-27 07:33N 51°22' E 003°44'9 9.5
2014-Oct-27 06:34N 51°26' E 003°58'8 7.9
2014-Oct-27 05:33N 51°24' E 004°11'8 8.2
2014-Oct-27 04:34N 51°17' E 004°19'2 2.4
2014-Oct-27 03:33N 51°16' E 004°16'2 2.0
2014-Oct-27 02:31N 51°16' E 004°13'0 0.0
2014-Oct-27 01:28N 51°16' E 004°13'0 0.0
2014-Oct-27 00:10N 51°16' E 004°13'0 0.0
2014-Oct-26 23:22N 51°16' E 004°13'0 0.0
2014-Oct-26 19:16N 51°16' E 004°13'0 0.0
2014-Oct-26 18:24N 51°16' E 004°13'0 0.0
2014-Oct-26 17:27N 51°16' E 004°13'0 0.0
2014-Oct-26 15:19N 51°16' E 004°13'0 0.0
2014-Oct-26 13:20N 51°16' E 004°13'0 0.0
2014-Oct-26 02:11N 51°16' E 004°13'0 0.1
2014-Oct-26 01:33N 51°16' E 004°13'2 2.3
2014-Oct-26 00:34N 51°16' E 004°17'0 0.0
2014-Oct-25 23:33N 51°16' E 004°17'4 3.7
2014-Oct-25 22:34N 51°20' E 004°16'10 9.5
2014-Oct-25 21:33N 51°23' E 004°02'8 7.9
2014-Oct-25 20:34N 51°21' E 003°50'1010.4
2014-Oct-25 19:33N 51°26' E 003°35'10 9.9
2014-Oct-25 18:33N 51°33' E 003°25'1211.8
2014-Oct-25 17:33N 51°43' E 003°15'24 2.0
2014-Oct-25 05:31N 52°04' E 003°34'6 6.3
2014-Oct-25 04:33N 52°04' E 003°44'7 6.7
2014-Oct-25 03:33N 52°03' E 003°55'1010.3
2014-Oct-25 02:33N 51°58' E 004°09'9 8.6
2014-Oct-25 01:33N 51°53' E 004°21'0 0.2
2014-Oct-25 00:31N 51°53' E 004°21'0 0.0
2014-Oct-24 23:31N 51°53' E 004°21'0 0.0
2014-Oct-24 22:31N 51°53' E 004°21'0 0.0
2014-Oct-24 21:31N 51°53' E 004°21'0 0.0
2014-Oct-24 20:31N 51°53' E 004°21'0 0.0
2014-Oct-24 19:31N 51°53' E 004°21'0 0.0
2014-Oct-24 18:31N 51°53' E 004°21'0 0.0
2014-Oct-24 17:31N 51°53' E 004°21'0 0.0
2014-Oct-24 16:31N 51°53' E 004°21'0 0.0
2014-Oct-24 15:31N 51°53' E 004°21'0 0.0
2014-Oct-24 14:28N 51°53' E 004°21'0 0.0
2014-Oct-24 13:31N 51°53' E 004°21'0 0.0
2014-Oct-24 12:31N 51°53' E 004°21'0 0.0
2014-Oct-24 11:31N 51°53' E 004°21'0 0.0
2014-Oct-24 10:31N 51°53' E 004°21'0 0.0
2014-Oct-24 09:34N 51°53' E 004°21'1 1.3
2014-Oct-24 08:34N 51°54' E 004°19'2 1.8
2014-Oct-24 07:34N 51°53' E 004°17'0 0.0
2014-Oct-24 06:31N 51°53' E 004°17'0 0.0
2014-Oct-24 05:34N 51°53' E 004°17'0 0.0
2014-Oct-24 04:22N 51°53' E 004°17'0 0.0
2014-Oct-24 03:31N 51°53' E 004°17'0 0.0
2014-Oct-24 02:28N 51°53' E 004°17'0 0.0
2014-Oct-24 01:34N 51°53' E 004°17'0 0.0
2014-Oct-24 00:28N 51°53' E 004°17'1 1.6
2014-Oct-23 23:33N 51°54' E 004°16'1111.0
2014-Oct-23 22:33N 51°60' E 004°01'1010.0
2014-Oct-23 21:33N 52°00' E 003°45'8 8.2
2014-Oct-23 20:32N 51°57' E 003°33'60 7.4
2014-Oct-23 12:21N 52°26' E 002°06'5 6.6
2014-Oct-23 11:33N 52°21' E 002°02'8 8.4
2014-Oct-23 10:33N 52°13' E 002°06'8 8.3
2014-Oct-23 09:34N 52°06' E 002°11'13 6.1
2014-Oct-23 07:23N 51°53' E 002°08'8 9.3
2014-Oct-23 06:33N 51°49' E 001°56'1110.7
2014-Oct-23 05:33N 51°51' E 001°39'9 9.2
2014-Oct-23 04:33N 51°56' E 001°27'8 8.0
2014-Oct-23 03:33N 51°57' E 001°14'0 0.0
2014-Oct-22 07:33N 51°57' E 001°14'4 4.3
2014-Oct-22 06:33N 51°55' E 001°21'9 8.6
2014-Oct-22 05:33N 51°59' E 001°34'7 6.7
2014-Oct-22 04:33N 52°04' E 001°40'10 9.9
2014-Oct-22 03:33N 52°13' E 001°47'9 9.2
2014-Oct-22 02:33N 52°22' E 001°50'8 8.3
2014-Oct-22 01:33N 52°30' E 001°53'8 7.8
2014-Oct-22 00:33N 52°38' E 001°55'8 8.2
2014-Oct-21 23:33N 52°46' E 001°53'1010.2
2014-Oct-21 22:33N 52°53' E 001°40'1110.8
2014-Oct-21 21:33N 53°01' E 001°29'1111.1
2014-Oct-21 20:33N 53°11' E 001°20'3911.5
2014-Oct-21 17:13N 53°43' E 000°45'812.4
2014-Oct-21 16:33N 53°50' E 000°37'1212.4
2014-Oct-21 15:33N 54°00' E 000°26'1212.4
2014-Oct-21 14:33N 54°12' E 000°18'1212.1
2014-Oct-21 13:33N 54°23' E 000°12'1211.7
2014-Oct-21 12:33N 54°35' E 000°06'1111.0
2014-Oct-21 11:33N 54°45' E 000°01'10 9.9
2014-Oct-21 10:33N 54°54' W 000°07'149 8.8
2014-Oct-20 17:33N 57°15' W 001°34'9 9.1
2014-Oct-20 16:33N 57°23' W 001°39'  

Dump ship's entire track history